星链-31247 (STARLINK-31247 )

导读 | 星芒AI

STARLINK-31247 是 SpaceX Starlink 卫星互联网项目中的一颗低轨卫星,属于第5批发射的星链卫星群。该卫星运行在约550公里高度的近地轨道,旨在为全球用户提供高速互联网服务。作为星链计划的一部分,它与其他数千颗卫星协同工作,提升网络覆盖与连接稳定性。STARLINK-31247 采用先进推进系统,具备自主变轨和避障能力,有助于减少太空碎片风险。该卫星的部署进一步推动了 SpaceX 在全球宽带通信领域的布局。

基本信息
目录编号:
59206
目录名称:
STARLINK-31247
国际标识:
2024-046F
轨道中心:
EARTH
卫星名称:
星链-31247
卫星全名:
星链-31247 (STARLINK-31247 )
卫星状态:
在轨 (已飞行602 天)
发射日期:
2024-03-11 UTC
国别 :
美国 (US)
星等 :
--
轨道信息
数据来源 国际轨道数据
星历时间: 2025-11-02T19:53:10+0800
14小时前
查看轨道信息
半长轴: 6853.297km
偏心率: 0.0001239
轨道倾角: 53.161°
近地点辐角 90.531°
升交点赤经 26.276°
平近点角 269.583°
近地点: 474.312km
远地点: 476.012km
周期: 94.104分钟
每日圈数: 15.302185
详细信息
固有亮度:
5
最大亮度:
0.3
卫星平台:
Starlink v2.0 mini
覆盖范围:
全球
运营商:
太空探索技术公司
运营商所在国:
美国
制造商(研发单位):
太空探索技术公司
制造商所在国:
美国
使用方式:
暂无
卫星简介
星链(Starlink)计划是由太空探索技术公司(SpaceX)提出的一个巨型低轨卫星互联网星座项目,计划在2019年至2024年间在太空搭建由约1.2万颗卫星组成的“星链”网络,其中1584颗将部署在地球上空550千米处的近地轨道,并从2020年开始工作。该卫星仍在工作。
2D轨道图
3D轨道图
轨道高度分析图
轨道倾角分析图
轨道综合分析图
查看轨道综合分析图